Moffett Federal Airfield Mountain View US
ICAO: KNUQ
IATA: NUQ
Category: Medium
Scheduled Services: No

Elevation: 32 ft
TransAlt. 18000 ft.

Airport Communications:
NORCAL APP:31.76
NORCAL APP:120.1
ATIS/ASOS:124.175
CLNC DEL:38.08
CTAF:119.55
NORCAL DEP:121.3
GND:121.85
ANG:39.09
BASE OPS:25.17
TWR:119.55

KNUQ Zoom In..

Runways:

(A) RW 14L length 9197 ft width 200 ft
LOC 110.35 / hdg 142

(B) RW 14R length 8122 ft width 200 ft
LOC 110.35 / hdg 142

(C) RW 32L length 8122 ft width 200 ft
LOC 110.35 / hdg 322

(D) RW 32R length 9197 ft width 200 ft
ILS 110.35 / hdg 322

Location; KNUQ
Day. 11 / Time. 08.55 Zulu
* Altimeter: 29.91
* Temperature: 16° c. 60.8°f.
* Wind from: 360° Speed 05 kn.
Dewpoint: 14° c.
Visibility: 10 Statute Miles.
Clouds: Overcast 1100 ft.

KNUQ 110855Z AUTO 36005KT 10SM OVC011 16/14 A2991 RMK AO2

Going to: --> -->


Wind From 360°
Speed 05 kn.

 
 
jpsmedia worldairports.se 2020   terms of use